[[{"header":{"parameterUnit":"m.s-1","parameterCategory":1,"la1":30.2991,"la2":30.254,"lo1":-89.0895,"lo2":-89.0444,"dy":0.0017,"dx":0.0017,"nx":28,"ny":28,"refTime":"2025-05-01T03:00:00:Z","depth":0,"parameterNumber":2,"parameterNumberName":"U-component_of_WINDS"},"data":[0,0,0,0,0,0,0,0,0,0,0,0,0,0,0,0,0,0,0,0,0,0,0,0,0,0,0,0,0,0,0,0,0,0,0,0,0,0,0,0,0,0,0,0,0,0,0,0,0,0,0,0,0,0,0,0,0,0,-4.2826,-4.2827,0,-4.2869,-4.287,-4.287,-4.2824,-4.2822,-4.2821,-4.2819,-4.2856,-4.2859,-4.2861,0,0,0,0,0,0,0,0,0,0,0,0,0,-4.27,-4.2703,-4.2826,-4.2827,-4.2827,-4.2869,-4.287,-4.287,-4.2825,-4.2822,-4.282,-4.2818,-4.2855,-4.2858,-4.2861,0,0,0,0,0,0,0,0,0,0,0,0,0,-4.275,-4.2704,-4.2826,-4.281,-4.2809,-4.2869,-4.287,-4.287,-4.2825,-4.2822,-4.282,-4.2817,-4.2854,-4.2858,-4.2862,-4.2938,0,0,-4.2874,-4.2876,0,0,0,0,0,0,0,0,-4.2747,-4.2755,-4.2812,-4.2811,-4.281,-4.2839,-4.2839,-4.2893,-4.2826,-4.2819,-4.2819,-4.2816,-4.2852,-4.2856,-4.2869,-4.294,-4.2941,-4.2874,-4.2877,-4.2878,-4.2879,0,0,0,0,0,0,0,-4.2744,-4.2753,-4.2843,-4.2813,-4.2812,-4.2799,-4.2803,-4.2849,-4.2849,-4.2819,-4.2816,-4.2822,-4.2851,-4.2866,-4.287,-4.2942,-4.2874,-4.2878,-4.288,-4.2881,-4.3077,-4.308,0,0,0,0,0,0,-4.2743,-4.275,-4.2842,-4.2844,-4.2772,-4.2803,-4.2808,-4.2832,-4.2849,-4.2849,-4.2824,-4.282,-4.286,-4.2865,-4.2871,-4.296,-4.2878,-4.2882,-4.2884,-4.3074,-4.3078,-4.3081,0,0,0,0,0,0,-4.2741,-4.2752,-4.284,-4.2796,-4.2807,-4.2808,-4.2836,-4.2834,-4.2849,-4.2853,-4.2852,-4.2839,-4.2859,-4.2866,-4.2922,-4.2961,-4.2884,-4.2887,-4.3071,-4.3075,-4.3079,-4.314,0,0,0,0,0,0,-4.2737,-4.2751,-4.2781,-4.2798,-4.2809,-4.2892,-4.2838,-4.2837,-4.2857,-4.2851,-4.2867,-4.2867,-4.2857,-4.2917,-4.2926,-4.2965,-4.289,-4.3067,-4.3073,-4.3078,-4.3134,-4.3146,-4.3155,0,0,0,0,0,-4.2733,-4.2795,-4.2783,-4.2794,-4.2847,-4.2894,-4.29,-4.289,-4.286,-4.2889,-4.2892,-4.2866,-4.2957,-4.2923,-4.2933,-4.2974,-4.3065,-4.3071,-4.3077,-4.3129,-4.3143,-4.3155,0,0,0,0,0,0,-4.2779,-4.2796,-4.2783,-4.2853,-4.2873,-4.2886,-4.2922,-4.2905,-4.2932,-4.2925,-4.291,-4.2914,-4.2974,-4.298,-4.2942,-4.3048,-4.3005,-4.3014,-4.3041,-4.3055,-4.3065,-4.306,-4.2893,0,0,0,0,0,-4.2798,-4.2837,-4.2849,-4.2909,-4.2921,-4.292,-4.294,-4.2931,-4.295,-4.2958,-4.2964,-4.2982,-4.3014,-4.3035,-4.3065,-4.3137,-4.3138,-4.317,-4.318,-4.3189,-4.3195,-4.3232,-4.3246,-4.3102,-4.3102,-4.3102,0,0,-4.2836,-4.285,-4.2875,-4.2919,-4.2933,-4.2972,-4.2927,-4.297,-4.2998,-4.2963,-4.3017,-4.3023,-4.3042,-4.3106,-4.3135,-4.3113,-4.3237,-4.3197,-4.3204,-4.3206,-4.324,-4.3254,-4.3266,-4.3106,-4.3105,-4.3105,0,0,-4.2924,-4.294,-4.2992,-4.3009,-4.3032,-4.3032,-4.3045,-4.3063,-4.3066,-4.3121,-4.3096,-4.3129,-4.3185,-4.3199,-4.3214,-4.3312,-4.3289,-4.3323,-4.3376,-4.3412,-4.3424,-4.3434,-4.3466,-4.3478,-4.333,-4.333,-4.333,0,-4.2967,-4.3026,-4.302,-4.3065,-4.3085,-4.306,-4.3111,-4.3126,-4.3158,-4.3171,-4.3148,-4.3219,-4.323,-4.3296,-4.3321,-4.3335,-4.3347,-4.3318,-4.3423,-4.3433,-4.3442,-4.3473,-4.3486,-4.3334,-4.3334,-4.3333,-4.3333,0,-4.3077,-4.3119,-4.3158,-4.3192,-4.3217,-4.3265,-4.3264,-4.3289,-4.328,-4.3282,-4.3338,-4.3351,-4.3383,-4.3399,-4.3389,-4.3465,-4.3451,-4.3426,-4.3381,-4.346,-4.3488,-4.35,-4.3339,-4.3338,-4.3337,-4.3336,0,0,-4.319,-4.3224,-4.3238,-4.3253,-4.328,-4.3311,-4.3358,-4.3393,-4.3414,-4.3438,-4.3475,-4.3525,-4.3503,-4.352,-4.3512,-4.3544,-4.3619,-4.3515,-4.3515,-4.3531,-4.3701,-4.3717,-4.3731,-4.3606,-4.3609,-4.3611,-4.3699,0,-4.3277,-4.3361,-4.3358,-4.3435,-4.3473,-4.3452,-4.3493,-4.3513,-4.3518,-4.3549,-4.3553,-4.3588,-4.3558,-4.3568,-4.36,-4.3603,-4.3652,-4.3598,-4.3638,-4.3639,-4.3629,-4.3747,-4.3763,-4.3845,-4.371,-4.3712,-4.3714,0,-4.3388,-4.3419,-4.3501,-4.3524,-4.3539,-4.3576,-4.3608,-4.364,-4.3662,-4.3663,-4.3684,-4.3671,-4.3717,-4.3676,-4.3738,-4.3701,-4.3718,-4.3723,-4.3726,-4.3725,-4.3678,-4.3746,-4.3872,-4.3883,-4.3732,-4.373,-4.3729,0,-4.3459,-4.3521,-4.3578,-4.3593,-4.3621,-4.3647,-4.366,-4.368,-4.3702,-4.373,-4.3743,-4.3775,-4.3792,-4.3816,-4.3812,-4.3783,-4.3875,-4.3833,-4.3874,-4.3874,-4.389,-4.3888,-4.4017,-4.3908,-4.3908,-4.3908,-4.3908,0,-4.3553,-4.3603,-4.3611,-4.3645,-4.3701,-4.3698,-4.3752,-4.3762,-4.3781,-4.3815,-4.38,-4.3832,-4.3827,-4.3859,-4.3856,-4.3907,-4.3916,-4.3916,-4.3913,-4.3915,-4.3914,-4.3922,-4.3915,-4.3911,-4.391,-4.391,-4.3909,0,-4.3639,-4.3647,-4.3707,-4.3731,-4.3739,-4.3778,-4.3797,-4.3829,-4.3835,-4.3879,-4.3889,-4.3896,-4.3934,-4.3934,-4.3975,-4.3974,-4.4035,-4.4028,-4.4028,-4.4025,-4.4065,-4.406,-4.4199,-4.4216,-4.41,-4.4102,-4.4103,0,-4.3697,-4.3736,-4.3765,-4.3789,-4.3805,-4.3843,-4.3866,-4.3865,-4.3889,-4.3919,-4.3947,-4.3984,-4.4013,-4.4074,-4.4081,-4.4113,-4.4104,-4.4152,-4.4108,-4.4109,-4.4101,-4.4097,-4.41,-4.4158,-4.4159,-4.416,-4.4161,0,-4.3798,-4.3801,-4.3836,-4.3873,-4.3902,-4.393,-4.3956,-4.3976,-4.3979,-4.4006,-4.4046,-4.4069,-4.4114,-4.415,-4.4181,-4.4192,-4.4176,-4.4176,-4.4186,-4.4186,-4.4183,-4.4182,-4.4047,-4.4171,-4.417,-4.4169,-4.4169,-4.4168,-4.3869,-4.3903,-4.393,-4.3969,-4.3991,-4.4016,-4.4048,-4.4059,-4.4093,-4.4131,-4.4129,-4.4173,-4.4195,-4.4236,-4.4251,-4.4283,-4.4266,-4.4282,-4.4285,-4.4288,-4.4291,-4.4182,-4.4289,-4.4289,-4.4289,-4.4288,-4.4288,0,-4.3967,-4.3985,-4.4022,-4.4061,-4.4092,-4.4081,-4.411,-4.4135,-4.4175,-4.4199,-4.4229,-4.4275,-4.431,-4.4322,-4.4356,-4.438,-4.4374,-4.4389,-4.4384,-4.4387,-4.4306,-4.4292,-4.4393,-4.4393,-4.4393,-4.4393,-4.4393,-4.4393,-4.4021,-4.4077,-4.4084,-4.415,-4.4166,-4.4211,-4.4229,-4.4252,-4.4271,-4.4324,-4.4354,-4.4364,-4.4383,-4.4418,-4.445,-4.4453,-4.4464,-4.4481,-4.448,-4.4403,-4.4393,-4.4382,-4.4369,-4.4485,-4.4485,-4.4558,-4.4559,-4.4559]},{"header":{"parameterUnit":"m.s-1","parameterCategory":1,"la1":30.2991,"la2":30.254,"lo1":-89.0895,"lo2":-89.0444,"dy":0.0017,"dx":0.0017,"nx":28,"ny":28,"refTime":"2025-05-01T03:00:00:Z","depth":0,"parameterNumber":3,"parameterNumberName":"V-component_of_WINDS"},"data":[0,0,0,0,0,0,0,0,0,0,0,0,0,0,0,0,0,0,0,0,0,0,0,0,0,0,0,0,0,0,0,0,0,0,0,0,0,0,0,0,0,0,0,0,0,0,0,0,0,0,0,0,0,0,0,0,0,0,4.4548,4.455,0,4.4693,4.4694,4.4696,4.472,4.4719,4.4717,4.4716,4.4862,4.4867,4.4872,0,0,0,0,0,0,0,0,0,0,0,0,0,4.4294,4.4298,4.4548,4.455,4.4552,4.4692,4.4694,4.4696,4.472,4.4718,4.4717,4.4716,4.4861,4.4867,4.4873,0,0,0,0,0,0,0,0,0,0,0,0,0,4.4418,4.43,4.4548,4.458,4.4585,4.4692,4.4694,4.4697,4.472,4.4718,4.4717,4.4715,4.4859,4.4866,4.4874,4.4958,0,0,4.4897,4.49,0,0,0,0,0,0,0,0,4.4411,4.4427,4.4574,4.4578,4.4583,4.4686,4.4658,4.4784,4.4721,4.4669,4.4716,4.4714,4.4805,4.4817,4.4848,4.4965,4.4971,4.4898,4.4902,4.4905,4.4908,0,0,0,0,0,0,0,4.4402,4.4421,4.4605,4.4576,4.4582,4.4588,4.4604,4.4682,4.4746,4.4673,4.4675,4.4692,4.4807,4.4841,4.4852,4.4973,4.4897,4.4904,4.4909,4.4912,4.5171,4.5174,0,0,0,0,0,0,4.4387,4.4413,4.46,4.4609,4.4491,4.4594,4.4612,4.4655,4.4745,4.4757,4.4694,4.4693,4.4829,4.4843,4.4857,4.4966,4.4905,4.4912,4.4917,4.5169,4.5172,4.5175,0,0,0,0,0,0,4.4382,4.4404,4.4595,4.4512,4.4537,4.4601,4.4649,4.4659,4.4692,4.476,4.4772,4.4716,4.4828,4.4846,4.4934,4.4971,4.4916,4.4923,4.5166,4.517,4.5173,4.5182,0,0,0,0,0,0,4.4374,4.4402,4.4434,4.4513,4.4541,4.4669,4.4651,4.4663,4.4706,4.4706,4.4785,4.4796,4.4828,4.4923,4.4942,4.4981,4.4929,4.5163,4.5168,4.5172,4.5179,4.5185,4.5191,0,0,0,0,0,4.4365,4.4429,4.4435,4.4458,4.4583,4.4671,4.4687,4.4724,4.4708,4.4742,4.4787,4.4793,4.4963,4.4931,4.4953,4.4995,4.5161,4.5167,4.5172,4.5176,4.5184,4.5191,0,0,0,0,0,0,4.4351,4.444,4.4448,4.4539,4.4597,4.4675,4.4718,4.473,4.4794,4.4791,4.4833,4.4851,4.4937,4.4974,4.4937,4.5084,4.5061,4.5071,4.5057,4.5065,4.5071,4.5062,4.4935,0,0,0,0,0,4.4359,4.4423,4.4496,4.457,4.4599,4.4654,4.4693,4.4716,4.4779,4.4803,4.4854,4.4913,4.4981,4.5024,4.509,4.5183,4.5203,4.5223,4.5229,4.5234,4.5243,4.53,4.5311,4.5192,4.5192,4.5192,0,0,4.4375,4.4431,4.4469,4.4569,4.4617,4.4684,4.4674,4.4744,4.4795,4.4813,4.4901,4.494,4.501,4.5102,4.5145,4.5136,4.528,4.524,4.5244,4.5251,4.5307,4.5318,4.5328,4.5196,4.5195,4.5194,0,0,4.444,4.4487,4.4556,4.4605,4.4679,4.4715,4.4732,4.4809,4.4836,4.4925,4.4942,4.5002,4.5116,4.5167,4.5207,4.5295,4.5306,4.5315,4.5348,4.5404,4.5413,4.5422,4.5458,4.5469,4.5323,4.5323,4.5323,0,4.4451,4.4552,4.4589,4.4661,4.4706,4.4727,4.4799,4.4844,4.4935,4.4966,4.4954,4.5102,4.5149,4.5256,4.5278,4.5309,4.5331,4.5308,4.5409,4.5418,4.5426,4.5461,4.5474,4.5324,4.5324,4.5324,4.5324,0,4.4564,4.4635,4.4681,4.4772,4.4821,4.4892,4.4941,4.4987,4.5007,4.5045,4.5137,4.5195,4.5276,4.5302,4.532,4.5413,4.5405,4.54,4.5379,4.5438,4.5472,4.5485,4.5326,4.5325,4.5325,4.5325,0,0,4.4624,4.4737,4.4754,4.4797,4.4881,4.4937,4.5009,4.5089,4.513,4.5192,4.5257,4.5354,4.5352,4.5398,4.5422,4.547,4.5542,4.546,4.5462,4.5477,4.5653,4.566,4.5674,4.5548,4.555,4.5552,4.5649,0,4.4703,4.4835,4.4872,4.4983,4.5052,4.5074,4.5138,4.5198,4.5235,4.5299,4.534,4.5411,4.54,4.5429,4.5477,4.5523,4.5579,4.5516,4.5611,4.5614,4.5597,4.5691,4.5697,4.5785,4.5662,4.5664,4.5666,0,4.4811,4.4879,4.4999,4.5079,4.5109,4.5166,4.5245,4.5304,4.5373,4.5397,4.545,4.5471,4.555,4.5522,4.5633,4.559,4.5631,4.5659,4.5664,4.5677,4.5646,4.5711,4.5814,4.5829,4.5686,4.5684,4.5683,0,4.485,4.497,4.5058,4.5094,4.5188,4.5229,4.527,4.5337,4.5384,4.5452,4.5484,4.5559,4.5601,4.566,4.5702,4.5677,4.5811,4.5785,4.5836,4.5835,4.5866,4.5864,4.5981,4.5884,4.5884,4.5884,4.5884,0,4.4936,4.5009,4.5078,4.5132,4.5216,4.5258,4.534,4.5382,4.5442,4.5507,4.5529,4.5589,4.5638,4.5705,4.5737,4.5827,4.5844,4.5868,4.5877,4.5869,4.5867,4.5899,4.5896,4.5887,4.5887,4.5886,4.5885,0,4.4994,4.5042,4.5141,4.5223,4.5246,4.5304,4.5375,4.543,4.5469,4.5551,4.5572,4.5634,4.5715,4.5761,4.5861,4.5883,4.5985,4.5988,4.5962,4.5967,4.6017,4.6014,4.6162,4.6186,4.6069,4.607,4.6071,0,4.5047,4.5105,4.5195,4.5241,4.5283,4.5355,4.5405,4.5448,4.5499,4.5584,4.563,4.5712,4.578,4.5908,4.5962,4.604,4.6048,4.6095,4.606,4.6052,4.6055,4.6053,4.6061,4.6102,4.6103,4.6104,4.6105,0,4.514,4.5162,4.5232,4.5313,4.5372,4.5437,4.5501,4.5537,4.5592,4.5648,4.5732,4.5785,4.589,4.5972,4.6056,4.6098,4.6113,4.6115,4.6132,4.6127,4.6112,4.6126,4.5984,4.6112,4.6111,4.6111,4.6111,4.611,4.5201,4.5255,4.5328,4.5408,4.5461,4.5522,4.5579,4.5627,4.5698,4.5788,4.5809,4.5898,4.5969,4.6083,4.6128,4.6199,4.6191,4.6214,4.622,4.6227,4.6231,4.6097,4.6213,4.6213,4.6213,4.6213,4.6213,0,4.5299,4.5348,4.542,4.5511,4.5575,4.5582,4.5655,4.5707,4.5786,4.5851,4.5919,4.6018,4.6099,4.616,4.6243,4.6289,4.6298,4.631,4.6309,4.632,4.6231,4.6211,4.6302,4.6302,4.6302,4.6302,4.6301,4.6301,4.5358,4.5452,4.5483,4.5605,4.5653,4.5742,4.5784,4.5841,4.5894,4.6003,4.6072,4.6111,4.6176,4.6265,4.6341,4.6357,4.6388,4.64,4.6418,4.6335,4.6325,4.6316,4.6298,4.6406,4.6406,4.6502,4.6503,4.6503]}]]